FENGYUN 1D

Satellite information

Favourite Embed

Satellite Type and Status

PAYLOADIN ORBIT

Key statistics

Satellite FENGYUN 1D at a glance.

Uptime

8453

Days in orbit

Revolutions

≈ 14.1

Per day

Orbit

SSO

Sun Synchronous Orbit

Inclination

99.0

Latest

Satellite identification and parameters

Extended collection of information and parameters for FENGYUN 1D.

Object identification

Identified? True

Debris? False

Object name: FENGYUN 1D

International designator: 2002-024B

Object number (NORAD): 27431

Object ID (CCSDS): 27431

Country: PEOPLES REPUBLIC OF CHINA (PRC)

Current information (Y/N): Y

RCS size: LARGE

Orbital parameters

Period: 102.117 minutes

Inclination: 99.0032 deg

SMA: 7236.993 km

Apoapsis: 870.596 km

Periapsis: 847.12 km

RAAN: 232.7251 deg

Eccentricy: 0.0016219

Argument of periapsis: 134.4299 deg

Mean anomaly: 225.8201 deg

Mean motion: 14.10150722 rev/day

Mean motion (dot): 0.00000059 rev/day2

B* drag term: 0.00005863 1/REarth

Two-line elements (TLE)

Creation date: July 5, 2025, 10:46 p.m.

Reference frame: TEME

Reference center: EARTH

Epoch: July 5, 2025, 6:17 p.m. UTC

TLE line 0: 0 FENGYUN 1D

TLE line 1: 1 27431U 02024B 25186.76200348 .00000059 00000-0 58630-4 0 9997

TLE line 2: 2 27431 99.0032 232.7251 0016219 134.4299 225.8201 14.10150722190727

Live tracking on map

Real-time ground track for satellite FENGYUN 1D.

In-orbit conjunctions

There are no conjunctions computed for FENGYUN 1D, at the moment. Check back to stay up to date, as we update our databases every day.

Go to all conjunctions

Associated space launch

HaiYang abbreviated HY, is a series of marine remote sensing satellites developed and operated by China since 2002. As of June 2020, six satellites were launched and two more are planned. Feng Yun 1D was a polar orbiting meteorological satellite.

FENGYUN 1D was lifted into orbit during the mission ‘Long March 4B | Hai Yang 1 & Feng Yun 1D’, on board a Long March 4B space rocket.

The launch took place on May 15, 2002, 1:50 a.m. from Launch Complex 7.

For more information about the launch, click the button.

Launch to space Long March 4B | Hai Yang 1 & Feng Yun 1D
Long March 4B | Hai Yang 1 & Feng Yun 1D

Agency: N/A

Status: Launch Successful

Launch date: May 15, 2002, 1:50 a.m. UTC

Rocket: Long March 4B

Launch pad: Launch Complex 7

Location: Taiyuan Satellite Launch Center, People's Republic of China

...

Latest news about this satellite

There are no fresh news available about this satellite. Check back as we update our databases every day.


Newsletter sign-up

Weekly statistics, charts and insights to help you stay on top of the space industry.